Time,TemperatureF,DewpointF,PressureIn,WindDirection,WindDirectionDegrees,WindSpeedMPH,WindSpeedGustMPH,Humidity,HourlyPrecipIn,Conditions,Clouds,dailyrainin,SolarRadiationWatts/m^2,SoftwareType,DateUTC
2013-10-10 00:01:00,68.2,51.4,29.85,SSE,160,4.0,6.0,55,0.00,,---,0.00,0.00,VWS V14.01,2013-10-10 05:01:00,
2013-10-10 00:06:00,68.3,51.5,29.85,SE,145,6.0,9.0,55,0.00,,---,0.00,0.00,VWS V14.01,2013-10-10 05:06:00,
2013-10-10 00:11:00,68.3,51.5,29.85,ESE,118,9.0,11.0,55,0.00,,---,0.00,0.00,VWS V14.01,2013-10-10 05:11:00,
2013-10-10 00:16:00,68.2,51.4,29.85,SSE,166,6.0,12.0,55,0.00,,---,0.00,0.00,VWS V14.01,2013-10-10 05:16:00,
2013-10-10 00:21:00,68.1,51.3,29.85,SE,142,6.0,9.0,55,0.00,,---,0.00,0.00,VWS V14.01,2013-10-10 05:21:00,
2013-10-10 00:26:00,67.9,51.6,29.85,SE,142,6.0,10.0,56,0.00,,---,0.00,0.00,VWS V14.01,2013-10-10 05:26:00,
2013-10-10 00:31:00,67.7,51.5,29.85,SE,128,4.0,16.0,56,0.00,,---,0.00,0.00,VWS V14.01,2013-10-10 05:31:00,
2013-10-10 00:36:00,67.6,51.8,29.85,SE,144,12.0,17.0,57,0.00,,---,0.00,0.00,VWS V14.01,2013-10-10 05:36:00,
2013-10-10 00:41:00,67.6,51.8,29.85,SSE,151,11.0,15.0,57,0.00,,---,0.00,0.00,VWS V14.01,2013-10-10 05:41:00,
2013-10-10 00:46:00,67.5,51.8,29.85,SSE,158,11.0,12.0,57,0.00,,---,0.00,0.00,VWS V14.01,2013-10-10 05:46:00,
2013-10-10 00:51:00,67.4,51.7,29.85,SSE,152,5.0,10.0,57,0.00,,---,0.00,0.00,VWS V14.01,2013-10-10 05:51:00,
2013-10-10 00:56:00,67.3,51.6,29.86,SSE,163,3.0,6.0,57,0.00,,---,0.00,0.00,VWS V14.01,2013-10-10 05:56:00,
2013-10-10 01:01:00,67.1,51.8,29.86,SE,129,5.0,6.0,58,0.00,,---,0.00,0.00,VWS V14.01,2013-10-10 06:01:00,
2013-10-10 01:06:00,66.8,52.0,29.86,SE,141,3.0,4.0,59,0.00,,---,0.00,0.00,VWS V14.01,2013-10-10 06:06:00,
2013-10-10 01:11:00,66.6,51.8,29.85,South,169,7.0,11.0,59,0.00,,---,0.00,0.00,VWS V14.01,2013-10-10 06:11:00,
2013-10-10 01:16:00,66.4,51.7,29.85,SSE,150,4.0,10.0,59,0.00,,---,0.00,0.00,VWS V14.01,2013-10-10 06:16:00,
2013-10-10 01:21:00,66.2,51.9,29.85,SE,144,4.0,7.0,60,0.00,,---,0.00,0.00,VWS V14.01,2013-10-10 06:21:00,
2013-10-10 01:26:00,66.1,51.8,29.85,SSE,155,6.0,7.0,60,0.00,,---,0.00,0.00,VWS V14.01,2013-10-10 06:26:00,
2013-10-10 01:31:00,66.0,52.2,29.85,SE,132,6.0,7.0,61,0.00,,---,0.00,0.00,VWS V14.01,2013-10-10 06:31:00,
2013-10-10 01:35:00,65.9,52.1,29.85,SSE,156,3.0,10.0,61,0.00,,---,0.00,0.00,VWS V14.01,2013-10-10 06:35:00,
2013-10-10 01:40:00,65.8,52.0,29.85,South,190,6.0,7.0,61,0.00,,---,0.00,0.00,VWS V14.01,2013-10-10 06:40:00,
2013-10-10 01:45:00,65.8,52.0,29.85,SSE,158,10.0,10.0,61,0.00,,---,0.00,0.00,VWS V14.01,2013-10-10 06:45:00,
2013-10-10 01:50:00,65.7,51.9,29.85,SSE,150,3.0,9.0,61,0.00,,---,0.00,0.00,VWS V14.01,2013-10-10 06:50:00,
2013-10-10 01:55:00,65.7,52.3,29.85,SSE,159,7.0,10.0,62,0.00,,---,0.00,0.00,VWS V14.01,2013-10-10 06:55:00,
2013-10-10 02:00:00,65.7,52.3,29.85,SE,140,5.0,9.0,62,0.00,,---,0.00,0.00,VWS V14.01,2013-10-10 07:00:00,
2013-10-10 02:05:00,65.6,52.2,29.85,SSE,162,5.0,11.0,62,0.00,,---,0.00,0.00,VWS V14.01,2013-10-10 07:05:00,
2013-10-10 02:10:00,65.5,52.2,29.85,SE,131,2.0,11.0,62,0.00,,---,0.00,0.00,VWS V14.01,2013-10-10 07:10:00,
2013-10-10 02:15:00,65.5,52.2,29.85,SSE,158,10.0,10.0,62,0.00,,---,0.00,0.00,VWS V14.01,2013-10-10 07:15:00,
2013-10-10 02:20:00,65.5,52.2,29.85,SSE,156,5.0,5.0,62,0.00,,---,0.00,0.00,VWS V14.01,2013-10-10 07:20:00,
2013-10-10 02:25:00,65.4,52.5,29.85,SSE,157,7.0,8.0,63,0.00,,---,0.00,0.00,VWS V14.01,2013-10-10 07:25:00,
2013-10-10 02:30:00,65.5,52.6,29.85,South,172,4.0,10.0,63,0.00,,---,0.00,0.00,VWS V14.01,2013-10-10 07:30:00,
2013-10-10 02:35:00,65.4,52.5,29.86,SSE,151,5.0,9.0,63,0.00,,---,0.00,0.00,VWS V14.01,2013-10-10 07:35:00,
2013-10-10 02:40:00,65.4,52.5,29.85,SE,136,4.0,9.0,63,0.00,,---,0.00,0.00,VWS V14.01,2013-10-10 07:40:00,
2013-10-10 02:45:00,65.2,52.3,29.85,SSE,164,9.0,9.0,63,0.00,,---,0.00,0.00,VWS V14.01,2013-10-10 07:45:00,
2013-10-10 02:50:00,65.2,52.3,29.85,SSW,207,4.0,7.0,63,0.00,,---,0.00,0.00,VWS V14.01,2013-10-10 07:50:00,
2013-10-10 02:55:00,65.0,52.5,29.85,SSE,160,4.0,5.0,64,0.00,,---,0.00,0.00,VWS V14.01,2013-10-10 07:55:00,
2013-10-10 03:00:00,64.9,52.5,29.85,South,176,6.0,6.0,64,0.00,,---,0.00,0.00,VWS V14.01,2013-10-10 08:00:00,
2013-10-10 03:05:00,64.8,52.3,29.85,SSE,161,5.0,11.0,64,0.00,,---,0.00,0.00,VWS V14.01,2013-10-10 08:05:00,
2013-10-10 03:10:00,64.7,52.7,29.85,SSE,155,2.0,5.0,65,0.00,,---,0.00,0.00,VWS V14.01,2013-10-10 08:10:00,
2013-10-10 03:15:00,64.7,52.7,29.85,SSE,150,3.0,8.0,65,0.00,,---,0.00,0.00,VWS V14.01,2013-10-10 08:15:00,
2013-10-10 03:20:00,64.5,52.5,29.85,SSE,161,1.0,6.0,65,0.00,,---,0.00,0.00,VWS V14.01,2013-10-10 08:20:00,
2013-10-10 03:25:00,64.4,52.4,29.85,SE,138,5.0,8.0,65,0.00,,---,0.00,0.00,VWS V14.01,2013-10-10 08:25:00,
2013-10-10 03:30:00,64.3,52.7,29.85,South,184,4.0,4.0,66,0.00,,---,0.00,0.00,VWS V14.01,2013-10-10 08:30:00,
2013-10-10 03:35:00,64.2,52.6,29.85,SSE,153,10.0,10.0,66,0.00,,---,0.00,0.00,VWS V14.01,2013-10-10 08:35:00,
2013-10-10 03:40:00,64.3,52.7,29.85,SE,125,3.0,9.0,66,0.00,,---,0.00,0.00,VWS V14.01,2013-10-10 08:40:00,
2013-10-10 03:45:00,64.5,52.9,29.85,SSE,150,3.0,7.0,66,0.00,,---,0.00,0.00,VWS V14.01,2013-10-10 08:45:00,
2013-10-10 03:50:00,64.5,52.9,29.85,South,189,5.0,5.0,66,0.00,,---,0.00,0.00,VWS V14.01,2013-10-10 08:50:00,
2013-10-10 03:55:00,64.6,53.0,29.85,SSE,166,7.0,9.0,66,0.00,,---,0.00,0.00,VWS V14.01,2013-10-10 08:55:00,
2013-10-10 04:00:00,64.7,53.1,29.85,South,173,5.0,9.0,66,0.00,,---,0.00,0.00,VWS V14.01,2013-10-10 09:00:00,
2013-10-10 04:05:00,64.6,53.4,29.85,SE,144,6.0,6.0,67,0.00,,---,0.00,0.00,VWS V14.01,2013-10-10 09:05:00,
2013-10-10 04:10:00,64.6,53.4,29.86,East,82,3.0,6.0,67,0.00,,---,0.00,0.00,VWS V14.01,2013-10-10 09:10:00,
2013-10-10 04:15:00,64.5,53.3,29.86,SE,145,3.0,3.0,67,0.00,,---,0.00,0.00,VWS V14.01,2013-10-10 09:15:00,
2013-10-10 04:20:00,64.3,53.1,29.86,South,169,6.0,6.0,67,0.00,,---,0.00,0.00,VWS V14.01,2013-10-10 09:20:00,
2013-10-10 04:25:00,64.1,53.3,29.85,SE,145,3.0,5.0,68,0.00,,---,0.00,0.00,VWS V14.01,2013-10-10 09:25:00,
2013-10-10 04:30:00,64.0,53.2,29.85,ESE,121,9.0,10.0,68,0.00,,---,0.00,0.00,VWS V14.01,2013-10-10 09:30:00,
2013-10-10 04:35:00,64.0,53.2,29.86,SSE,150,10.0,10.0,68,0.00,,---,0.00,0.00,VWS V14.01,2013-10-10 09:35:00,
2013-10-10 04:40:00,64.1,53.3,29.85,SSE,150,6.0,6.0,68,0.00,,---,0.00,0.00,VWS V14.01,2013-10-10 09:40:00,
2013-10-10 04:45:00,64.1,53.3,29.85,SSE,155,4.0,10.0,68,0.00,,---,0.00,0.00,VWS V14.01,2013-10-10 09:45:00,
2013-10-10 04:51:00,64.0,53.2,29.85,SSE,164,1.0,3.0,68,0.00,,---,0.00,0.00,VWS V14.01,2013-10-10 09:51:00,
2013-10-10 04:56:00,63.8,53.5,29.85,SSE,157,1.0,3.0,69,0.00,,---,0.00,0.00,VWS V14.01,2013-10-10 09:56:00,
2013-10-10 05:01:00,63.6,53.3,29.85,SSE,168,4.0,9.0,69,0.00,,---,0.00,0.00,VWS V14.01,2013-10-10 10:01:00,
2013-10-10 05:06:00,63.4,53.5,29.85,SE,128,1.0,6.0,70,0.00,,---,0.00,0.00,VWS V14.01,2013-10-10 10:06:00,
2013-10-10 05:11:00,63.4,53.5,29.85,SSE,167,4.0,6.0,70,0.00,,---,0.00,0.00,VWS V14.01,2013-10-10 10:11:00,
2013-10-10 05:16:00,63.3,53.4,29.86,SSE,167,5.0,6.0,70,0.00,,---,0.00,0.00,VWS V14.01,2013-10-10 10:16:00,
2013-10-10 05:21:00,63.3,53.4,29.86,ESE,102,0.0,3.0,70,0.00,,---,0.00,0.00,VWS V14.01,2013-10-10 10:21:00,
2013-10-10 05:26:00,63.2,53.3,29.86,SSE,152,2.0,3.0,70,0.00,,---,0.00,0.00,VWS V14.01,2013-10-10 10:26:00,
2013-10-10 05:31:00,63.0,53.5,29.86,SSE,160,0.0,2.0,71,0.00,,---,0.00,0.00,VWS V14.01,2013-10-10 10:31:00,
2013-10-10 05:36:00,62.8,53.3,29.86,SSE,148,1.0,1.0,71,0.00,,---,0.00,0.00,VWS V14.01,2013-10-10 10:36:00,
2013-10-10 05:41:00,62.5,53.0,29.86,SSE,168,2.0,3.0,71,0.00,,---,0.00,0.00,VWS V14.01,2013-10-10 10:41:00,
2013-10-10 05:46:00,62.2,53.1,29.86,SSE,165,1.0,3.0,72,0.00,,---,0.00,0.00,VWS V14.01,2013-10-10 10:46:00,
2013-10-10 05:51:00,61.9,52.8,29.86,SSE,161,2.0,4.0,72,0.00,,---,0.00,0.00,VWS V14.01,2013-10-10 10:51:00,
2013-10-10 05:56:00,61.7,53.0,29.86,SSE,167,3.0,3.0,73,0.00,,---,0.00,0.00,VWS V14.01,2013-10-10 10:56:00,
2013-10-10 06:01:00,61.6,52.9,29.86,SSE,159,2.0,3.0,73,0.00,,---,0.00,0.00,VWS V14.01,2013-10-10 11:01:00,
2013-10-10 06:06:00,61.5,52.8,29.86,SSE,157,3.0,4.0,73,0.00,,---,0.00,0.00,VWS V14.01,2013-10-10 11:06:00,
2013-10-10 06:11:00,61.5,53.2,29.86,SSE,163,3.0,3.0,74,0.00,,---,0.00,0.00,VWS V14.01,2013-10-10 11:11:00,
2013-10-10 06:16:00,61.4,53.0,29.86,SSE,158,3.0,7.0,74,0.00,,---,0.00,0.00,VWS V14.01,2013-10-10 11:16:00,
2013-10-10 06:21:00,61.5,53.2,29.86,SE,145,3.0,5.0,74,0.00,,---,0.00,0.00,VWS V14.01,2013-10-10 11:21:00,
2013-10-10 06:26:00,61.6,53.2,29.86,SSE,163,7.0,7.0,74,0.00,,---,0.00,0.00,VWS V14.01,2013-10-10 11:26:00,
2013-10-10 06:31:00,61.7,53.3,29.85,SSE,151,3.0,9.0,74,0.00,,---,0.00,0.00,VWS V14.01,2013-10-10 11:31:00,
2013-10-10 06:36:00,61.9,53.5,29.85,SSE,161,11.0,12.0,74,0.00,,---,0.00,0.00,VWS V14.01,2013-10-10 11:36:00,
2013-10-10 06:41:00,62.0,53.3,29.85,SSE,152,10.0,10.0,73,0.00,,---,0.00,0.00,VWS V14.01,2013-10-10 11:41:00,
2013-10-10 06:46:00,62.0,53.3,29.85,SSE,153,4.0,11.0,73,0.00,,---,0.00,0.00,VWS V14.01,2013-10-10 11:46:00,
2013-10-10 06:51:00,62.0,53.3,29.86,South,175,6.0,7.0,73,0.00,,---,0.00,0.00,VWS V14.01,2013-10-10 11:51:00,
2013-10-10 06:56:00,61.9,53.5,29.85,SSE,150,9.0,9.0,74,0.00,,---,0.00,0.00,VWS V14.01,2013-10-10 11:56:00,
2013-10-10 07:01:00,62.0,53.6,29.85,SSE,165,5.0,8.0,74,0.00,,---,0.00,0.00,VWS V14.01,2013-10-10 12:01:00,
2013-10-10 07:06:00,61.9,53.5,29.85,South,173,3.0,6.0,74,0.00,,---,0.00,0.00,VWS V14.01,2013-10-10 12:06:00,
2013-10-10 07:11:00,61.8,53.4,29.85,SE,131,3.0,10.0,74,0.00,,---,0.00,0.00,VWS V14.01,2013-10-10 12:11:00,
2013-10-10 07:16:00,61.8,53.4,29.85,South,178,4.0,7.0,74,0.00,,---,0.00,0.00,VWS V14.01,2013-10-10 12:16:00,
2013-10-10 07:21:00,61.7,53.3,29.85,SSE,165,6.0,7.0,74,0.00,,---,0.00,0.00,VWS V14.01,2013-10-10 12:21:00,
2013-10-10 07:26:00,61.6,53.2,29.85,SSE,154,4.0,8.0,74,0.00,,---,0.00,0.00,VWS V14.01,2013-10-10 12:26:00,
2013-10-10 07:31:00,61.6,53.2,29.85,SE,144,3.0,4.0,74,0.00,,---,0.00,0.00,VWS V14.01,2013-10-10 12:31:00,
2013-10-10 07:35:00,61.5,53.5,29.85,SE,145,4.0,5.0,75,0.00,,---,0.00,0.00,VWS V14.01,2013-10-10 12:35:00,
2013-10-10 07:40:00,61.5,53.5,29.85,SSE,159,4.0,4.0,75,0.00,,---,0.00,5.00,VWS V14.01,2013-10-10 12:40:00,
2013-10-10 07:45:00,61.4,53.4,29.85,South,185,4.0,4.0,75,0.00,,---,0.00,7.00,VWS V14.01,2013-10-10 12:45:00,
2013-10-10 07:50:00,61.4,53.4,29.85,SSE,150,3.0,5.0,75,0.00,,---,0.00,9.00,VWS V14.01,2013-10-10 12:50:00,
2013-10-10 07:55:00,61.3,53.3,29.86,ESE,115,3.0,4.0,75,0.00,,---,0.00,12.00,VWS V14.01,2013-10-10 12:55:00,
2013-10-10 08:00:00,60.9,52.9,29.86,SSE,165,2.0,2.0,75,0.00,,---,0.00,14.00,VWS V14.01,2013-10-10 13:00:00,
2013-10-10 08:05:00,60.7,52.7,29.86,ESE,119,2.0,3.0,75,0.00,,---,0.00,25.00,VWS V14.01,2013-10-10 13:05:00,
2013-10-10 08:10:00,60.6,53.0,29.86,SE,126,3.0,3.0,76,0.00,,---,0.00,35.00,VWS V14.01,2013-10-10 13:10:00,
2013-10-10 08:15:00,60.7,53.1,29.86,SE,143,2.0,2.0,76,0.00,,---,0.00,44.00,VWS V14.01,2013-10-10 13:15:00,
2013-10-10 08:20:00,60.8,53.2,29.86,East,101,1.0,2.0,76,0.00,,---,0.00,53.00,VWS V14.01,2013-10-10 13:20:00,
2013-10-10 08:25:00,61.0,53.4,29.87,ESE,103,1.0,2.0,76,0.00,,---,0.00,79.00,VWS V14.01,2013-10-10 13:25:00,
2013-10-10 08:30:00,61.2,53.6,29.87,SSE,161,1.0,3.0,76,0.00,,---,0.00,47.00,VWS V14.01,2013-10-10 13:30:00,
2013-10-10 08:35:00,61.6,54.3,29.86,SSE,163,5.0,6.0,77,0.00,,---,0.00,114.00,VWS V14.01,2013-10-10 13:35:00,
2013-10-10 08:40:00,62.3,54.7,29.87,SSE,159,5.0,5.0,76,0.00,,---,0.00,134.00,VWS V14.01,2013-10-10 13:40:00,
2013-10-10 08:45:00,63.0,55.0,29.87,SE,146,12.0,12.0,75,0.00,,---,0.00,155.00,VWS V14.01,2013-10-10 13:45:00,
2013-10-10 08:50:00,63.5,55.1,29.87,SSE,163,6.0,7.0,74,0.00,,---,0.00,174.00,VWS V14.01,2013-10-10 13:50:00,
2013-10-10 08:55:00,64.0,55.2,29.87,SSE,168,3.0,6.0,73,0.00,,---,0.00,195.00,VWS V14.01,2013-10-10 13:55:00,
2013-10-10 09:00:00,64.3,55.5,29.87,SSE,163,11.0,13.0,73,0.00,,---,0.00,213.00,VWS V14.01,2013-10-10 14:00:00,
2013-10-10 09:05:00,64.8,56.0,29.87,SSE,161,5.0,15.0,73,0.00,,---,0.00,232.00,VWS V14.01,2013-10-10 14:05:00,
2013-10-10 09:10:00,65.2,56.3,29.87,SSE,158,16.0,16.0,73,0.00,,---,0.00,250.00,VWS V14.01,2013-10-10 14:10:00,
2013-10-10 09:15:00,65.5,56.2,29.87,South,175,9.0,15.0,72,0.00,,---,0.00,267.00,VWS V14.01,2013-10-10 14:15:00,
2013-10-10 09:20:00,65.8,56.5,29.87,South,175,4.0,10.0,72,0.00,,---,0.00,285.00,VWS V14.01,2013-10-10 14:20:00,
2013-10-10 09:25:00,66.4,57.1,29.87,SSE,164,15.0,15.0,72,0.00,,---,0.00,302.00,VWS V14.01,2013-10-10 14:25:00,
2013-10-10 09:30:00,67.1,57.8,29.87,SSW,200,9.0,13.0,72,0.00,,---,0.00,320.00,VWS V14.01,2013-10-10 14:30:00,
2013-10-10 09:35:00,67.6,57.9,29.87,SSE,163,10.0,16.0,71,0.00,,---,0.00,334.00,VWS V14.01,2013-10-10 14:35:00,
2013-10-10 09:40:00,68.0,57.9,29.87,South,170,11.0,17.0,70,0.00,,---,0.00,352.00,VWS V14.01,2013-10-10 14:40:00,
2013-10-10 09:45:00,68.3,58.2,29.87,South,179,17.0,17.0,70,0.00,,---,0.00,367.00,VWS V14.01,2013-10-10 14:45:00,
2013-10-10 09:50:00,68.8,58.6,29.88,South,173,12.0,15.0,70,0.00,,---,0.00,383.00,VWS V14.01,2013-10-10 14:50:00,
2013-10-10 09:55:00,69.3,59.1,29.88,South,169,7.0,14.0,70,0.00,,---,0.00,399.00,VWS V14.01,2013-10-10 14:55:00,
2013-10-10 10:00:00,69.8,59.2,29.87,SSE,163,18.0,18.0,69,0.00,,---,0.00,413.00,VWS V14.01,2013-10-10 15:00:00,
2013-10-10 10:05:00,70.1,59.5,29.87,SSE,155,13.0,20.0,69,0.00,,---,0.00,431.00,VWS V14.01,2013-10-10 15:05:00,
2013-10-10 10:10:00,70.5,59.4,29.87,South,178,7.0,10.0,68,0.00,,---,0.00,445.00,VWS V14.01,2013-10-10 15:10:00,
2013-10-10 10:15:00,71.1,60.0,29.87,South,178,5.0,10.0,68,0.00,,---,0.00,459.00,VWS V14.01,2013-10-10 15:15:00,
2013-10-10 10:20:00,71.7,60.2,29.87,SE,142,14.0,15.0,67,0.00,,---,0.00,473.00,VWS V14.01,2013-10-10 15:20:00,
2013-10-10 10:25:00,71.9,60.4,29.87,SSE,158,12.0,19.0,67,0.00,,---,0.00,489.00,VWS V14.01,2013-10-10 15:25:00,
2013-10-10 10:30:00,72.3,60.7,29.87,South,173,4.0,6.0,67,0.00,,---,0.00,503.00,VWS V14.01,2013-10-10 15:30:00,
2013-10-10 10:35:00,72.9,60.5,29.87,SSE,152,6.0,10.0,65,0.00,,---,0.00,519.00,VWS V14.01,2013-10-10 15:35:00,
2013-10-10 10:40:00,73.0,60.5,29.87,South,171,13.0,15.0,65,0.00,,---,0.00,531.00,VWS V14.01,2013-10-10 15:40:00,
2013-10-10 10:45:00,73.2,60.7,29.87,SSE,148,11.0,11.0,65,0.00,,---,0.00,545.00,VWS V14.01,2013-10-10 15:45:00,
2013-10-10 10:50:00,73.7,60.8,29.87,South,170,11.0,14.0,64,0.00,,---,0.00,557.00,VWS V14.01,2013-10-10 15:50:00,
2013-10-10 10:55:00,74.0,61.1,29.87,SE,143,11.0,18.0,64,0.00,,---,0.00,570.00,VWS V14.01,2013-10-10 15:55:00,
2013-10-10 11:00:00,74.0,60.6,29.86,South,186,10.0,20.0,63,0.00,,---,0.00,584.00,VWS V14.01,2013-10-10 16:00:00,
2013-10-10 11:05:00,74.3,60.9,29.86,SE,132,8.0,11.0,63,0.00,,---,0.00,596.00,VWS V14.01,2013-10-10 16:05:00,
2013-10-10 11:10:00,74.4,60.5,29.86,South,173,9.0,17.0,62,0.00,,---,0.00,606.00,VWS V14.01,2013-10-10 16:10:00,
2013-10-10 11:15:00,74.7,61.3,29.86,SSE,167,12.0,13.0,63,0.00,,---,0.00,617.00,VWS V14.01,2013-10-10 16:15:00,
2013-10-10 11:20:00,74.9,61.5,29.86,SSE,158,10.0,13.0,63,0.00,,---,0.00,626.00,VWS V14.01,2013-10-10 16:20:00,
2013-10-10 11:25:00,75.1,61.2,29.86,SSE,163,12.0,14.0,62,0.00,,---,0.00,638.00,VWS V14.01,2013-10-10 16:25:00,
2013-10-10 11:30:00,75.4,61.5,29.86,South,183,9.0,13.0,62,0.00,,---,0.00,647.00,VWS V14.01,2013-10-10 16:30:00,
2013-10-10 11:35:00,75.6,61.2,29.85,South,179,10.0,12.0,61,0.00,,---,0.00,657.00,VWS V14.01,2013-10-10 16:35:00,
2013-10-10 11:40:00,75.9,61.5,29.85,SSE,161,7.0,11.0,61,0.00,,---,0.00,666.00,VWS V14.01,2013-10-10 16:40:00,
2013-10-10 11:45:00,76.3,61.4,29.85,SSE,157,9.0,10.0,60,0.00,,---,0.00,677.00,VWS V14.01,2013-10-10 16:45:00,
2013-10-10 11:50:00,76.6,61.2,29.85,SSE,167,12.0,16.0,59,0.00,,---,0.00,687.00,VWS V14.01,2013-10-10 16:50:00,
2013-10-10 11:55:00,76.7,61.3,29.85,South,188,6.0,12.0,59,0.00,,---,0.00,696.00,VWS V14.01,2013-10-10 16:55:00,
2013-10-10 12:00:00,76.9,61.5,29.85,SE,141,10.0,13.0,59,0.00,,---,0.00,703.00,VWS V14.01,2013-10-10 17:00:00,
2013-10-10 12:05:00,77.1,61.7,29.85,SSE,163,18.0,18.0,59,0.00,,---,0.00,710.00,VWS V14.01,2013-10-10 17:05:00,
2013-10-10 12:10:00,77.3,61.9,29.85,South,175,13.0,15.0,59,0.00,,---,0.00,717.00,VWS V14.01,2013-10-10 17:10:00,
2013-10-10 12:15:00,77.2,61.8,29.85,South,187,14.0,19.0,59,0.00,,---,0.00,724.00,VWS V14.01,2013-10-10 17:15:00,
2013-10-10 12:20:00,77.1,61.7,29.84,SE,140,12.0,19.0,59,0.00,,---,0.00,729.00,VWS V14.01,2013-10-10 17:20:00,
2013-10-10 12:25:00,77.3,61.9,29.84,SSE,157,13.0,13.0,59,0.00,,---,0.00,737.00,VWS V14.01,2013-10-10 17:25:00,
2013-10-10 12:30:00,77.9,62.0,29.83,SSE,154,13.0,17.0,58,0.00,,---,0.00,744.00,VWS V14.01,2013-10-10 17:30:00,
2013-10-10 12:35:00,78.2,61.7,29.83,SSE,167,15.0,17.0,57,0.00,,---,0.00,747.00,VWS V14.01,2013-10-10 17:35:00,
2013-10-10 12:40:00,78.7,62.2,29.83,SSE,166,15.0,15.0,57,0.00,,---,0.00,754.00,VWS V14.01,2013-10-10 17:40:00,
2013-10-10 12:45:00,78.7,61.7,29.83,SSE,155,12.0,16.0,56,0.00,,---,0.00,758.00,VWS V14.01,2013-10-10 17:45:00,
2013-10-10 12:50:00,78.9,62.4,29.82,SSE,165,13.0,13.0,57,0.00,,---,0.00,763.00,VWS V14.01,2013-10-10 17:50:00,
2013-10-10 12:55:00,79.2,61.7,29.82,SSE,150,15.0,16.0,55,0.00,,---,0.00,770.00,VWS V14.01,2013-10-10 17:55:00,
2013-10-10 13:00:00,79.4,61.8,29.82,SSE,159,7.0,12.0,55,0.00,,---,0.00,775.00,VWS V14.01,2013-10-10 18:00:00,
2013-10-10 13:05:00,79.7,62.6,29.81,South,178,11.0,16.0,56,0.00,,---,0.00,773.00,VWS V14.01,2013-10-10 18:05:00,
2013-10-10 13:10:00,80.1,62.5,29.81,South,184,18.0,18.0,55,0.00,,---,0.00,775.00,VWS V14.01,2013-10-10 18:10:00,
2013-10-10 13:15:00,80.1,62.0,29.81,SSE,157,14.0,16.0,54,0.00,,---,0.00,772.00,VWS V14.01,2013-10-10 18:15:00,
2013-10-10 13:20:00,80.8,62.1,29.80,SSE,147,14.0,14.0,53,0.00,,---,0.00,772.00,VWS V14.01,2013-10-10 18:20:00,
2013-10-10 13:25:00,81.1,62.4,29.80,SSE,161,11.0,12.0,53,0.00,,---,0.00,772.00,VWS V14.01,2013-10-10 18:25:00,
2013-10-10 13:30:00,81.7,62.4,29.80,SSE,167,5.0,6.0,52,0.00,,---,0.00,773.00,VWS V14.01,2013-10-10 18:30:00,
2013-10-10 13:35:00,81.9,62.6,29.79,ESE,121,5.0,13.0,52,0.00,,---,0.00,773.00,VWS V14.01,2013-10-10 18:35:00,
2013-10-10 13:40:00,82.1,62.2,29.79,SSE,155,14.0,20.0,51,0.00,,---,0.00,770.00,VWS V14.01,2013-10-10 18:40:00,
2013-10-10 13:45:00,82.0,61.5,29.79,ESE,120,7.0,14.0,50,0.00,,---,0.00,768.00,VWS V14.01,2013-10-10 18:45:00,
2013-10-10 13:50:00,82.4,62.5,29.78,SE,127,11.0,12.0,51,0.00,,---,0.00,765.00,VWS V14.01,2013-10-10 18:50:00,
2013-10-10 13:55:00,82.6,61.5,29.78,SSE,161,17.0,17.0,49,0.00,,---,0.00,761.00,VWS V14.01,2013-10-10 18:55:00,
2013-10-10 14:00:00,82.4,61.3,29.77,SE,142,10.0,14.0,49,0.00,,---,0.00,761.00,VWS V14.01,2013-10-10 19:00:00,
2013-10-10 14:05:00,83.0,61.3,29.77,ESE,123,10.0,14.0,48,0.00,,---,0.00,758.00,VWS V14.01,2013-10-10 19:05:00,
2013-10-10 14:10:00,83.0,60.7,29.77,SSE,153,18.0,19.0,47,0.00,,---,0.00,752.00,VWS V14.01,2013-10-10 19:10:00,
2013-10-10 14:15:00,82.9,61.8,29.76,SSE,151,11.0,14.0,49,0.00,,---,0.00,749.00,VWS V14.01,2013-10-10 19:15:00,
2013-10-10 14:20:00,83.1,61.4,29.76,South,169,10.0,14.0,48,0.00,,---,0.00,744.00,VWS V14.01,2013-10-10 19:20:00,
2013-10-10 14:25:00,83.4,61.7,29.76,SE,129,7.0,11.0,48,0.00,,---,0.00,742.00,VWS V14.01,2013-10-10 19:25:00,
2013-10-10 14:30:00,84.0,61.0,29.75,South,186,7.0,14.0,46,0.00,,---,0.00,737.00,VWS V14.01,2013-10-10 19:30:00,
2013-10-10 14:35:00,84.0,60.4,29.75,SSE,148,15.0,16.0,45,0.00,,---,0.00,735.00,VWS V14.01,2013-10-10 19:35:00,
2013-10-10 14:40:00,83.9,59.7,29.75,SE,146,19.0,19.0,44,0.00,,---,0.00,729.00,VWS V14.01,2013-10-10 19:40:00,
2013-10-10 14:45:00,84.1,61.1,29.74,SSE,150,6.0,9.0,46,0.00,,---,0.00,726.00,VWS V14.01,2013-10-10 19:45:00,
2013-10-10 14:50:00,84.7,60.4,29.74,SE,136,9.0,9.0,44,0.00,,---,0.00,715.00,VWS V14.01,2013-10-10 19:50:00,
2013-10-10 14:55:00,84.9,59.9,29.74,SSE,168,18.0,24.0,43,0.00,,---,0.00,701.00,VWS V14.01,2013-10-10 19:55:00,
2013-10-10 15:00:00,85.0,60.7,29.74,SSE,162,5.0,5.0,44,0.00,,---,0.00,703.00,VWS V14.01,2013-10-10 20:00:00,
2013-10-10 15:05:00,85.4,60.4,29.74,SSE,148,17.0,17.0,43,0.00,,---,0.00,686.00,VWS V14.01,2013-10-10 20:05:00,
2013-10-10 15:10:00,85.5,59.8,29.73,South,182,16.0,16.0,42,0.00,,---,0.00,677.00,VWS V14.01,2013-10-10 20:10:00,
2013-10-10 15:15:00,85.6,60.6,29.73,SSE,165,14.0,20.0,43,0.00,,---,0.00,661.00,VWS V14.01,2013-10-10 20:15:00,
2013-10-10 15:20:00,85.6,59.9,29.73,SSE,161,19.0,20.0,42,0.00,,---,0.00,654.00,VWS V14.01,2013-10-10 20:20:00,
2013-10-10 15:25:00,85.0,60.0,29.73,SSE,154,5.0,17.0,43,0.00,,---,0.00,645.00,VWS V14.01,2013-10-10 20:25:00,
2013-10-10 15:30:00,85.4,59.7,29.73,SSE,153,7.0,20.0,42,0.00,,---,0.00,635.00,VWS V14.01,2013-10-10 20:30:00,
2013-10-10 15:31:00,85.4,60.4,29.73,SSE,159,14.0,17.0,43,0.00,,---,0.00,633.00,VWS V14.01,2013-10-10 20:31:00,
2013-10-10 15:36:00,85.3,60.3,29.73,SSE,164,12.0,14.0,43,0.00,,---,0.00,626.00,VWS V14.01,2013-10-10 20:36:00,
2013-10-10 15:41:00,85.6,59.9,29.72,ESE,119,15.0,19.0,42,0.00,,---,0.00,608.00,VWS V14.01,2013-10-10 20:41:00,
2013-10-10 15:46:00,85.1,60.1,29.72,SSE,157,11.0,19.0,43,0.00,,---,0.00,596.00,VWS V14.01,2013-10-10 20:46:00,
2013-10-10 15:51:00,85.1,59.5,29.72,SSE,155,14.0,14.0,42,0.00,,---,0.00,584.00,VWS V14.01,2013-10-10 20:51:00,
2013-10-10 15:56:00,85.6,60.6,29.72,SSE,155,15.0,15.0,43,0.00,,---,0.00,570.00,VWS V14.01,2013-10-10 20:56:00,
2013-10-10 16:01:00,85.2,60.2,29.71,ESE,109,11.0,15.0,43,0.00,,---,0.00,561.00,VWS V14.01,2013-10-10 21:01:00,
2013-10-10 16:06:00,84.8,60.5,29.71,SSE,162,13.0,16.0,44,0.00,,---,0.00,545.00,VWS V14.01,2013-10-10 21:06:00,
2013-10-10 16:11:00,85.1,59.5,29.71,SSE,159,6.0,18.0,42,0.00,,---,0.00,527.00,VWS V14.01,2013-10-10 21:11:00,
2013-10-10 16:16:00,84.9,59.9,29.71,SSE,149,11.0,20.0,43,0.00,,---,0.00,520.00,VWS V14.01,2013-10-10 21:16:00,
2013-10-10 16:21:00,84.6,59.7,29.70,South,170,18.0,21.0,43,0.00,,---,0.00,504.00,VWS V14.01,2013-10-10 21:21:00,
2013-10-10 16:26:00,84.7,60.4,29.70,ESE,115,5.0,18.0,44,0.00,,---,0.00,483.00,VWS V14.01,2013-10-10 21:26:00,
2013-10-10 16:31:00,84.9,59.9,29.70,SSE,159,13.0,14.0,43,0.00,,---,0.00,471.00,VWS V14.01,2013-10-10 21:31:00,
2013-10-10 16:36:00,85.0,60.0,29.70,SSE,161,12.0,21.0,43,0.00,,---,0.00,459.00,VWS V14.01,2013-10-10 21:36:00,
2013-10-10 16:41:00,84.8,59.8,29.70,SSE,155,12.0,23.0,43,0.00,,---,0.00,443.00,VWS V14.01,2013-10-10 21:41:00,
2013-10-10 16:46:00,84.8,59.8,29.70,SSE,148,8.0,14.0,43,0.00,,---,0.00,429.00,VWS V14.01,2013-10-10 21:46:00,
2013-10-10 16:51:00,85.2,59.5,29.69,SE,142,15.0,17.0,42,0.00,,---,0.00,413.00,VWS V14.01,2013-10-10 21:51:00,
2013-10-10 16:56:00,84.8,59.2,29.69,SSE,158,23.0,25.0,42,0.00,,---,0.00,396.00,VWS V14.01,2013-10-10 21:56:00,
2013-10-10 17:01:00,84.8,59.8,29.69,South,173,13.0,21.0,43,0.00,,---,0.00,381.00,VWS V14.01,2013-10-10 22:01:00,
2013-10-10 17:06:00,84.8,59.8,29.69,SSE,158,11.0,18.0,43,0.00,,---,0.00,366.00,VWS V14.01,2013-10-10 22:06:00,
2013-10-10 17:11:00,84.8,59.8,29.68,South,175,18.0,25.0,43,0.00,,---,0.00,350.00,VWS V14.01,2013-10-10 22:11:00,
2013-10-10 17:16:00,84.6,59.7,29.68,SSE,148,15.0,18.0,43,0.00,,---,0.00,330.00,VWS V14.01,2013-10-10 22:16:00,
2013-10-10 17:21:00,84.5,60.2,29.68,SE,144,7.0,18.0,44,0.00,,---,0.00,313.00,VWS V14.01,2013-10-10 22:21:00,
2013-10-10 17:26:00,84.5,60.2,29.68,SSE,158,22.0,23.0,44,0.00,,---,0.00,297.00,VWS V14.01,2013-10-10 22:26:00,
2013-10-10 17:31:00,84.3,60.0,29.68,SSE,168,4.0,19.0,44,0.00,,---,0.00,281.00,VWS V14.01,2013-10-10 22:31:00,
2013-10-10 17:36:00,84.1,59.9,29.68,SSE,166,9.0,23.0,44,0.00,,---,0.00,262.00,VWS V14.01,2013-10-10 22:36:00,
2013-10-10 17:41:00,83.9,59.7,29.68,SSE,163,21.0,21.0,44,0.00,,---,0.00,241.00,VWS V14.01,2013-10-10 22:41:00,
2013-10-10 17:46:00,83.8,60.2,29.68,SSE,150,16.0,16.0,45,0.00,,---,0.00,227.00,VWS V14.01,2013-10-10 22:46:00,
2013-10-10 17:51:00,83.8,60.2,29.68,SSE,148,19.0,27.0,45,0.00,,---,0.00,206.00,VWS V14.01,2013-10-10 22:51:00,
2013-10-10 17:56:00,83.6,60.0,29.68,South,177,9.0,18.0,45,0.00,,---,0.00,185.00,VWS V14.01,2013-10-10 22:56:00,
2013-10-10 18:01:00,83.5,59.9,29.68,SE,144,14.0,20.0,45,0.00,,---,0.00,165.00,VWS V14.01,2013-10-10 23:01:00,
2013-10-10 18:06:00,83.2,59.7,29.68,SE,138,13.0,24.0,45,0.00,,---,0.00,144.00,VWS V14.01,2013-10-10 23:06:00,
2013-10-10 18:11:00,83.1,60.2,29.68,South,176,17.0,20.0,46,0.00,,---,0.00,125.00,VWS V14.01,2013-10-10 23:11:00,
2013-10-10 18:16:00,82.9,60.0,29.68,SSE,165,13.0,19.0,46,0.00,,---,0.00,109.00,VWS V14.01,2013-10-10 23:16:00,
2013-10-10 18:21:00,82.7,59.8,29.68,ESE,119,13.0,18.0,46,0.00,,---,0.00,90.00,VWS V14.01,2013-10-10 23:21:00,
2013-10-10 18:26:00,82.5,60.3,29.68,SSE,153,12.0,17.0,47,0.00,,---,0.00,74.00,VWS V14.01,2013-10-10 23:26:00,
2013-10-10 18:31:00,82.3,60.1,29.67,SSE,165,12.0,16.0,47,0.00,,---,0.00,51.00,VWS V14.01,2013-10-10 23:31:00,
2013-10-10 18:36:00,82.0,60.4,29.67,SE,146,17.0,21.0,48,0.00,,---,0.00,39.00,VWS V14.01,2013-10-10 23:36:00,
2013-10-10 18:41:00,81.7,60.1,29.68,South,180,16.0,16.0,48,0.00,,---,0.00,33.00,VWS V14.01,2013-10-10 23:41:00,
2013-10-10 18:46:00,81.5,59.9,29.68,SSE,161,9.0,9.0,48,0.00,,---,0.00,23.00,VWS V14.01,2013-10-10 23:46:00,
2013-10-10 18:51:00,81.2,59.7,29.68,SSE,163,21.0,21.0,48,0.00,,---,0.00,18.00,VWS V14.01,2013-10-10 23:51:00,
2013-10-10 18:56:00,80.9,59.4,29.68,SSE,154,10.0,20.0,48,0.00,,---,0.00,14.00,VWS V14.01,2013-10-10 23:56:00,
2013-10-10 19:01:00,80.6,59.7,29.68,SSE,155,8.0,17.0,49,0.00,,---,0.00,11.00,VWS V14.01,2013-10-11 00:01:00,
2013-10-10 19:05:00,80.3,59.4,29.67,SSE,161,14.0,26.0,49,0.00,,---,0.00,7.00,VWS V14.01,2013-10-11 00:05:00,
2013-10-10 19:10:00,80.0,59.7,29.67,SSE,151,16.0,16.0,50,0.00,,---,0.00,0.00,VWS V14.01,2013-10-11 00:10:00,
2013-10-10 19:15:00,79.7,60.0,29.68,SSE,148,9.0,13.0,51,0.00,,---,0.00,0.00,VWS V14.01,2013-10-11 00:15:00,
2013-10-10 19:20:00,79.6,59.9,29.68,SSE,159,15.0,15.0,51,0.00,,---,0.00,0.00,VWS V14.01,2013-10-11 00:20:00,
2013-10-10 19:25:00,79.4,59.7,29.68,SSE,153,4.0,6.0,51,0.00,,---,0.00,0.00,VWS V14.01,2013-10-11 00:25:00,
2013-10-10 19:30:00,79.1,60.0,29.68,SSE,150,7.0,16.0,52,0.00,,---,0.00,0.00,VWS V14.01,2013-10-11 00:30:00,
2013-10-10 19:35:00,78.9,59.8,29.68,SSE,147,6.0,13.0,52,0.00,,---,0.00,0.00,VWS V14.01,2013-10-11 00:35:00,
2013-10-10 19:40:00,78.6,59.5,29.68,SSE,150,9.0,14.0,52,0.00,,---,0.00,0.00,VWS V14.01,2013-10-11 00:40:00,
2013-10-10 19:45:00,78.4,59.9,29.68,SE,126,5.0,6.0,53,0.00,,---,0.00,0.00,VWS V14.01,2013-10-11 00:45:00,
2013-10-10 19:50:00,78.2,59.7,29.68,SE,140,7.0,12.0,53,0.00,,---,0.00,0.00,VWS V14.01,2013-10-11 00:50:00,
2013-10-10 19:55:00,77.8,59.8,29.68,ESE,122,10.0,10.0,54,0.00,,---,0.00,0.00,VWS V14.01,2013-10-11 00:55:00,
2013-10-10 20:00:00,77.6,59.7,29.68,SSE,158,5.0,8.0,54,0.00,,---,0.00,0.00,VWS V14.01,2013-10-11 01:00:00,
2013-10-10 20:06:00,77.5,59.6,29.68,SSE,148,7.0,7.0,54,0.00,,---,0.00,0.00,VWS V14.01,2013-10-11 01:06:00,
2013-10-10 20:10:00,77.2,59.8,29.68,SSE,150,4.0,11.0,55,0.00,,---,0.00,0.00,VWS V14.01,2013-10-11 01:10:00,
2013-10-10 20:15:00,77.0,59.6,29.68,SSE,154,4.0,8.0,55,0.00,,---,0.00,0.00,VWS V14.01,2013-10-11 01:15:00,
2013-10-10 20:20:00,76.9,60.0,29.68,East,91,4.0,11.0,56,0.00,,---,0.00,0.00,VWS V14.01,2013-10-11 01:20:00,
2013-10-10 20:25:00,76.7,59.8,29.67,SE,144,6.0,6.0,56,0.00,,---,0.00,0.00,VWS V14.01,2013-10-11 01:25:00,
2013-10-10 20:30:00,76.7,59.8,29.67,SSE,157,4.0,9.0,56,0.00,,---,0.00,0.00,VWS V14.01,2013-10-11 01:30:00,
2013-10-10 20:35:00,76.5,59.7,29.67,SSE,157,4.0,7.0,56,0.00,,---,0.00,0.00,VWS V14.01,2013-10-11 01:35:00,
2013-10-10 20:40:00,76.4,60.1,29.67,SE,140,2.0,5.0,57,0.00,,---,0.00,0.00,VWS V14.01,2013-10-11 01:40:00,
2013-10-10 20:45:00,76.2,59.9,29.67,SE,125,2.0,6.0,57,0.00,,---,0.00,0.00,VWS V14.01,2013-10-11 01:45:00,
2013-10-10 20:50:00,76.0,60.2,29.67,SSE,148,4.0,4.0,58,0.00,,---,0.00,0.00,VWS V14.01,2013-10-11 01:50:00,
2013-10-10 20:55:00,75.9,60.1,29.67,ESE,121,6.0,11.0,58,0.00,,---,0.00,0.00,VWS V14.01,2013-10-11 01:55:00,
2013-10-10 21:00:00,75.7,59.9,29.67,ESE,110,4.0,13.0,58,0.00,,---,0.00,0.00,VWS V14.01,2013-10-11 02:00:00,
2013-10-10 21:05:00,75.6,60.3,29.66,East,95,5.0,9.0,59,0.00,,---,0.00,0.00,VWS V14.01,2013-10-11 02:05:00,
2013-10-10 21:10:00,75.6,60.3,29.67,SE,130,4.0,12.0,59,0.00,,---,0.00,0.00,VWS V14.01,2013-10-11 02:10:00,
2013-10-10 21:15:00,75.5,60.2,29.67,SE,140,5.0,13.0,59,0.00,,---,0.00,0.00,VWS V14.01,2013-10-11 02:15:00,
2013-10-10 21:20:00,75.4,60.1,29.67,SSE,158,10.0,11.0,59,0.00,,---,0.00,0.00,VWS V14.01,2013-10-11 02:20:00,
2013-10-10 21:25:00,75.3,60.0,29.67,SSE,168,5.0,15.0,59,0.00,,---,0.00,0.00,VWS V14.01,2013-10-11 02:25:00,
2013-10-10 21:30:00,75.2,60.4,29.67,SE,143,3.0,6.0,60,0.00,,---,0.00,0.00,VWS V14.01,2013-10-11 02:30:00,
2013-10-10 21:35:00,75.0,60.2,29.67,SSW,202,7.0,9.0,60,0.00,,---,0.00,0.00,VWS V14.01,2013-10-11 02:35:00,
2013-10-10 21:40:00,74.8,60.0,29.67,South,178,11.0,11.0,60,0.00,,---,0.00,0.00,VWS V14.01,2013-10-11 02:40:00,
2013-10-10 21:45:00,74.7,59.9,29.67,SSE,154,5.0,11.0,60,0.00,,---,0.00,0.00,VWS V14.01,2013-10-11 02:45:00,
2013-10-10 21:50:00,74.6,60.3,29.67,SE,146,5.0,9.0,61,0.00,,---,0.00,0.00,VWS V14.01,2013-10-11 02:50:00,
2013-10-10 21:55:00,74.4,60.1,29.67,ENE,69,6.0,10.0,61,0.00,,---,0.00,0.00,VWS V14.01,2013-10-11 02:55:00,
2013-10-10 22:00:00,74.3,60.0,29.67,SSE,151,6.0,10.0,61,0.00,,---,0.00,0.00,VWS V14.01,2013-10-11 03:00:00,
2013-10-10 22:05:00,74.1,60.3,29.67,SSE,168,4.0,12.0,62,0.00,,---,0.00,0.00,VWS V14.01,2013-10-11 03:05:00,
2013-10-10 22:10:00,74.1,60.3,29.67,ESE,107,4.0,9.0,62,0.00,,---,0.00,0.00,VWS V14.01,2013-10-11 03:10:00,
2013-10-10 22:15:00,74.0,60.2,29.67,SSE,150,5.0,10.0,62,0.00,,---,0.00,0.00,VWS V14.01,2013-10-11 03:15:00,
2013-10-10 22:20:00,74.1,60.3,29.67,East,84,9.0,11.0,62,0.00,,---,0.00,0.00,VWS V14.01,2013-10-11 03:20:00,
2013-10-10 22:25:00,73.9,60.1,29.67,SSE,157,8.0,11.0,62,0.00,,---,0.00,0.00,VWS V14.01,2013-10-11 03:25:00,
2013-10-10 22:30:00,73.9,60.1,29.67,SSE,167,15.0,15.0,62,0.00,,---,0.00,0.00,VWS V14.01,2013-10-11 03:30:00,
2013-10-10 22:35:00,73.8,60.0,29.67,South,174,5.0,12.0,62,0.00,,---,0.00,0.00,VWS V14.01,2013-10-11 03:35:00,
2013-10-10 22:40:00,73.7,60.3,29.67,SE,127,7.0,10.0,63,0.00,,---,0.00,0.00,VWS V14.01,2013-10-11 03:40:00,
2013-10-10 22:45:00,73.7,60.3,29.67,South,171,11.0,13.0,63,0.00,,---,0.00,0.00,VWS V14.01,2013-10-11 03:45:00,
2013-10-10 22:50:00,73.6,60.2,29.67,SSE,166,12.0,16.0,63,0.00,,---,0.00,0.00,VWS V14.01,2013-10-11 03:50:00,
2013-10-10 22:55:00,73.6,60.2,29.67,SSE,161,4.0,9.0,63,0.00,,---,0.00,0.00,VWS V14.01,2013-10-11 03:55:00,
2013-10-10 23:00:00,73.6,60.2,29.67,SE,136,4.0,16.0,63,0.00,,---,0.00,0.00,VWS V14.01,2013-10-11 04:00:00,
2013-10-10 23:01:00,73.6,60.2,29.67,SSE,148,6.0,16.0,63,0.00,,---,0.00,0.00,VWS V14.01,2013-10-11 04:01:00,
2013-10-10 23:02:00,73.6,60.2,29.67,East,95,5.0,5.0,63,0.00,,---,0.00,0.00,VWS V14.01,2013-10-11 04:02:00,
2013-10-10 23:07:00,73.5,60.2,29.67,SSE,162,9.0,12.0,63,0.00,,---,0.00,0.00,VWS V14.01,2013-10-11 04:07:00,
2013-10-10 23:12:00,73.5,60.6,29.67,SSE,164,12.0,16.0,64,0.00,,---,0.00,0.00,VWS V14.01,2013-10-11 04:12:00,
2013-10-10 23:17:00,73.7,60.3,29.67,South,180,9.0,16.0,63,0.00,,---,0.00,0.00,VWS V14.01,2013-10-11 04:17:00,
2013-10-10 23:22:00,73.7,60.3,29.67,SE,142,11.0,13.0,63,0.00,,---,0.00,0.00,VWS V14.01,2013-10-11 04:22:00,
2013-10-10 23:27:00,73.7,60.3,29.67,SSE,163,16.0,16.0,63,0.00,,---,0.00,0.00,VWS V14.01,2013-10-11 04:27:00,
2013-10-10 23:32:00,73.7,60.8,29.67,SSE,153,7.0,18.0,64,0.00,,---,0.00,0.00,VWS V14.01,2013-10-11 04:32:00,
2013-10-10 23:37:00,73.6,60.7,29.67,SE,136,3.0,13.0,64,0.00,,---,0.00,0.00,VWS V14.01,2013-10-11 04:37:00,
2013-10-10 23:42:00,73.5,60.6,29.67,SE,137,9.0,15.0,64,0.00,,---,0.00,0.00,VWS V14.01,2013-10-11 04:42:00,
2013-10-10 23:47:00,73.4,60.5,29.67,SE,146,13.0,20.0,64,0.00,,---,0.00,0.00,VWS V14.01,2013-10-11 04:47:00,
2013-10-10 23:52:00,73.3,60.4,29.67,ESE,121,11.0,23.0,64,0.00,,---,0.00,0.00,VWS V14.01,2013-10-11 04:52:00,
2013-10-10 23:57:00,73.3,60.4,29.66,SSE,152,13.0,17.0,64,0.00,,---,0.00,0.00,VWS V14.01,2013-10-11 04:57:00,